{"data":{"norad_id":63153,"epoch":"2026-09-22T16:51:43.242048Z","epoch_age_seconds":120458,"freshness":"FRESH","line1":"1 63153U 25009DQ  26265.70258382  .00004096  00000+0  23549-3 0  9994","line2":"2 63153  97.4461 336.9356 0010293  87.9854 272.2555 15.12988980 92866","mean_motion":15.1298898,"eccentricity":0.0010293,"inclination_deg":97.4461,"raan_deg":336.9356,"arg_perigee_deg":87.9854,"mean_anomaly_deg":272.2555,"bstar":0.00023549,"rev_number":9286,"period_min":95.175841928472,"perigee_km":519.98305538531,"apogee_km":534.19815693535,"semimajor_km":6905.2276061603,"source":"CELESTRAK","updated_at":"2026-09-23T09:00:21.845626Z"}}